CW3083 Friday Harbor WA US current weather conditions

sailwx.info

Wind from 090

Air temperature 20.0° C
Dewpoint 13.0° C

Last reported at 2020-Aug-12 00:33 UTC.
Time now 2020-Aug-12 12:58 UTC

Location: N 48°37' W 123°08'.
View on Google Maps.

See reports from other nearby stations

  
Tides and Currents Weather Stations Pressure Air Temp Water Temp Dewpoint Dewpoint Depression Visibility Wind Speed Wind Dir Waves Ship Positions
date/time (UTC)wind fromknots sea level pressurealtimeterstation pressurevisibilityair tempwater tempwave heightnotes
2020-Aug-12 00:33 090 20.0
2020-Aug-12 00:28 180 20.0
2020-Aug-12 00:23 151 20.0
2020-Aug-12 00:18 159 20.0
2020-Aug-12 00:13 076 20.0
2020-Aug-12 00:08 165 20.0
2020-Aug-12 00:04 141 20.0
2020-Aug-11 23:58 101 0 20.0
2020-Aug-11 23:53 112 20.0
2020-Aug-11 23:48 283 20.6
2020-Aug-11 23:43 276 20.6
2020-Aug-11 23:38 133 20.6
2020-Aug-11 23:33 135 0 20.6
2020-Aug-11 23:28 102 20.6
2020-Aug-11 23:24 223 20.6
2020-Aug-11 23:18 112 20.6
2020-Aug-11 23:13 188 20.6
2020-Aug-11 23:08 109 20.6
2020-Aug-11 23:03 163 20.6
2020-Aug-11 22:58 145 20.6
2020-Aug-11 22:53 156 20.6
2020-Aug-11 22:48 166 20.6
2020-Aug-11 22:43 177 20.0
2020-Aug-11 22:38 097 20.0
2020-Aug-11 22:33 20.0
2020-Aug-11 22:28 20.0
2020-Aug-11 22:23 359 20.0
2020-Aug-11 22:18 022 20.6
2020-Aug-11 22:13 022 20.0
2020-Aug-11 22:09 022 20.0
2020-Aug-11 22:03 20.6
2020-Aug-11 21:58 20.6
2020-Aug-11 21:53 21.1
2020-Aug-11 21:48 20.6
2020-Aug-11 21:44 028 20.6
2020-Aug-11 21:39 028 21.1
2020-Aug-11 21:34 20.6
2020-Aug-11 21:28 21.1
2020-Aug-11 21:23 317 20.6
2020-Aug-11 21:18 21.1
2020-Aug-11 21:13 20.6
2020-Aug-11 21:08 323 0 21.1
2020-Aug-11 21:03 21.7
2020-Aug-11 20:58 21.1
2020-Aug-11 20:53 21.7
2020-Aug-11 20:48 333 22.2
2020-Aug-11 20:43 001 22.8
2020-Aug-11 20:38 293 22.8
2020-Aug-11 20:33 351 22.8
2020-Aug-11 20:28 350 22.8
2020-Aug-11 20:23 280 22.2
2020-Aug-11 20:18 22.2
2020-Aug-11 20:14 22.8
2020-Aug-11 20:09 016 22.8
2020-Aug-11 20:03 23.3
2020-Aug-11 19:58 343 23.3
2020-Aug-11 19:54 034 23.9
2020-Aug-11 19:49 355 23.9
2020-Aug-11 19:44 24.4
2020-Aug-11 19:38 352 25.0
2020-Aug-11 19:34 017 26.1
2020-Aug-11 19:28 351 26.7
2020-Aug-11 19:24 28.3
2020-Aug-11 19:19 005 27.8
2020-Aug-11 19:14 003 27.8
2020-Aug-11 19:09 008 28.3
2020-Aug-11 19:04 259 29.4
2020-Aug-11 18:58 281 30.0
2020-Aug-11 18:53 234 30.6
2020-Aug-11 18:48 265 30.6
2020-Aug-11 18:43 280 30.0
2020-Aug-11 18:39 340 30.6
2020-Aug-11 18:34 266 30.6
2020-Aug-11 18:28 340 30.6
2020-Aug-11 18:23 335 30.6
2020-Aug-11 18:19 331 30.0
2020-Aug-11 18:14 016 30.0
2020-Aug-11 18:08 277 0 30.6
2020-Aug-11 18:03 272 30.6
2020-Aug-11 17:58 255 29.4
2020-Aug-11 17:53 28.3
2020-Aug-11 17:48 339 28.3
2020-Aug-11 17:43 357 27.2
2020-Aug-11 04:53 172 15.6
2020-Aug-11 04:48 172 15.6
2020-Aug-11 04:43 172 15.6
2020-Aug-11 04:39 172 16.1
2020-Aug-11 04:34 172 16.1
2020-Aug-11 04:28 172 16.1
2020-Aug-11 04:23 172 16.1
2020-Aug-11 04:18 172 16.1
2020-Aug-11 04:13 172 16.7
2020-Aug-11 04:08 172 16.7
2020-Aug-11 04:04 172 16.7
2020-Aug-11 03:58 172 16.7
2020-Aug-11 03:53 172 16.7
2020-Aug-11 03:48 172 16.7
2020-Aug-11 03:43 172 16.7
2020-Aug-11 03:39 172 17.2
2020-Aug-11 03:33 172 17.2
2020-Aug-11 03:28 172 17.2
2020-Aug-11 03:23 172 17.2
2020-Aug-11 03:18 172 17.8
2020-Aug-11 03:13 172 17.8
2020-Aug-11 03:08 172 17.8
2020-Aug-11 03:04 172 17.8
2020-Aug-11 02:58 172 18.3
2020-Aug-11 02:54 172 18.3
2020-Aug-11 02:48 202 18.3
2020-Aug-11 02:43 153 18.3
2020-Aug-11 02:38 270 18.3
2020-Aug-11 02:34 18.3
2020-Aug-11 02:29 18.3
2020-Aug-11 02:23 18.3
2020-Aug-11 02:18 18.3
2020-Aug-11 02:14 18.3